Flag for U.S.A. Weather past 2 weeks in Sioux Falls, South Dakota, U.S.A.

Now
55 °F

Overcast.


Feels Like: 54 °F
Forecast: 54 / 63 °F
Wind: 5 mph from Northeast

Location: Foss Field

Current Time: Apr 18, 2015 at 12:22:08 AM

Latest Report: Apr 17, 2015 at 11:56 PM


Visibility: 10 mi

Pressure: 30.04 "Hg

Humidity: 47%

Dew point: 35 °F

Location of Sioux FallsLocation

Historic Weather in Sioux Falls — Graph

°F

Sioux Falls temperature yesterday

Maximum temperature yesterday: 75 °F (at 1:56 PM)
Minimum temperature yesterday: 46 °F (at 6:56 AM)
Average temperature yesterday: 62 °F

Past Weeks' High & Low Weather Summary

 TemperatureHumidityPressure
High75 °F (Apr 12, 4:56 PM)97% (Apr 7, 12:01 PM)30.32 "Hg (Apr 7, 12:01 PM)
Low26 °F (Apr 3, 7:56 AM)14% (Apr 13, 4:56 PM)29.61 "Hg (Apr 12, 3:56 PM)
Average50 °F58%30.00 "Hg
* Reported Apr 2 10:56 PM — Apr 17 10:56 PM, Sioux Falls, Weather by CustomWeather, © 2015

Note: Actual official high and low records may vary slightly from our data, if they occured in-between our weather recording intervals... More about our weather records

Advertising

Sioux Falls weather history for previous 24 hours

 ConditionsComfort  
Time TempWeatherWind HumidityBarometerVisibility
10:56 PM
Fri, Apr 17
59 °FPassing clouds.6 mph41%30.03 "Hg10 mi
9:56 PM65 °FPassing clouds.No wind31%30.03 "Hg10 mi
8:56 PM65 °FPartly sunny.5 mph40%30.03 "Hg10 mi
7:56 PM70 °FPartly sunny.No wind35%30.02 "Hg10 mi
6:56 PM71 °FPartly sunny.7 mph35%30.02 "Hg10 mi
5:56 PM74 °FPartly sunny.5 mph32%30.02 "Hg10 mi
4:56 PM75 °FPartly sunny.5 mph32%30.03 "Hg10 mi
3:56 PM75 °FBroken clouds.No wind30%30.03 "Hg10 mi
2:56 PM75 °FBroken clouds.No wind31%30.06 "Hg10 mi
1:56 PM75 °FBroken clouds.3 mph33%30.07 "Hg10 mi
12:56 PM73 °FScattered clouds.3 mph36%30.09 "Hg10 mi
11:56 AM71 °FScattered clouds.5 mph39%30.10 "Hg10 mi
10:56 AM68 °FScattered clouds.8 mph42%30.11 "Hg10 mi
9:56 AM63 °FScattered clouds.7 mph47%30.13 "Hg10 mi
8:56 AM57 °FScattered clouds.No wind55%30.14 "Hg10 mi
7:56 AM49 °FScattered clouds.6 mph71%30.14 "Hg10 mi
6:56 AM46 °FPassing clouds.3 mph73%30.14 "Hg10 mi
5:56 AM47 °FPassing clouds.5 mph71%30.14 "Hg10 mi
4:56 AM49 °FPassing clouds.3 mph71%30.12 "Hg10 mi
3:56 AM49 °FClear.No wind74%30.12 "Hg10 mi
2:56 AM49 °FClear.No wind84%30.12 "Hg10 mi
1:56 AM49 °FClear.3 mph84%30.10 "Hg10 mi
12:56 AM48 °FClear.No wind86%30.10 "Hg10 mi
Weather by CustomWeather, © 2015

See weather overviewHow to use our weather pages